SPACEBEE-62 (47429 NORAD) Tracking and Keplerian Element Data

This shows tracking and keplerian element data for the satellite.

Feedback or suggestion? Click here.




ElementValue
Catalog47429
NameSPACEBEE-62
Epoch Orbit1196
Epoch Day101.67685699
Epoch Year2021
RAAN164.1957
Inclination97.4957
Eccentricity0.0013553
Argument of Perigee335.6373
Mean Anonmoly24.4216
Mean Motion15.13862664
Decay Rate1.271E-05
L11 47429U 21006S 21101.67685699 .00001271 00000-0 73793-4 0 9990
L22 47429 97.4957 164.1957 0013553 335.6373 24.4216 15.13862664 11967

Live tracking and technical data element details for SPACEBEE-62 (NORAD 47429). SPACEBEE-62 can be tracked NOW for your location showing map with azimuth and elevation plus other details from your city location.

Track the satellite on the map from your city or location and see movement details for azimuth, elevation, latitude, longitude, range, height, and movement on the map or in text.







IsCatalogInMostPopularTable: catalog: 47429, numindb: 14
Update: records affected: 1



GetName: 47429 SPACEBEE-62

Hit Count: updated at: Tue, 13 Apr 2021 03:42:07 GMT